FW8514 Weather Reports


time (UTC)temp
C
wind
direction
speed
KPH
gust
KPH
rain 1hr
cm
rain 24hr
cm
rain mn
cm
humidity
%
barometer
mb
20260504204857 22 173 6.4 9.7 0.00 0.00 0.00 44 991.3
20260504204354 22 248 4.8 8.0 0.00 0.00 0.00 43 991.5
20260504203854 22 242 4.8 4.8 0.00 0.00 0.00 42 991.4
20260504203350 22 270 6.4 8.0 0.00 0.00 0.00 45 991.4
20260504202846 22 242 3.2 3.2 0.00 0.00 0.00 45 991.5
20260504202343 22 207 4.8 4.8 0.00 0.00 0.00 42 991.6
20260504201839 22 191 6.4 8.0 0.00 0.00 0.00 44 991.5
20260504201337 22 177 8.0 11.3 0.00 0.00 0.00 42 991.7
20260504200835 23 179 3.2 3.2 0.00 0.00 0.00 43 991.7
20260504200331 22 246 4.8 4.8 0.00 0.00 0.00 44 991.7
20260504195827 22 220 12.9 16.1 0.00 0.00 0.00 42 991.9
20260504195323 22 237 4.8 9.7 0.00 0.00 0.00 43 991.9
20260504194820 22 260 8.0 11.3 0.00 0.00 0.00 40 991.9
20260504194316 23 259 6.4 8.0 0.00 0.00 0.00 43 991.8
20260504193812 22 223 6.4 9.7 0.00 0.00 0.00 42 992.0
20260504193310 22 178 3.2 4.8 0.00 0.00 0.00 43 991.9
20260504192808 22 223 4.8 8.0 0.00 0.00 0.00 44 992.0
20260504192306 22 123 1.6 3.2 0.00 0.00 0.00 43 992.0
20260504191804 22 115 3.2 4.8 0.00 0.00 0.00 42 992.1
20260504191301 22 246 8.0 11.3 0.00 0.00 0.00 42 992.0
20260504190757 22 257 9.7 12.9 0.00 0.00 0.00 42 992.3
20260504190253 22 259 4.8 8.0 0.00 0.00 0.00 43 992.4
20260504185750 22 266 4.8 8.0 0.00 0.00 0.00 42 992.3
20260504185247 21 263 3.2 4.8 0.00 0.00 0.00 44 992.3
20260504184743 21 231 9.7 12.9 0.00 0.00 0.00 42 992.4
20260504184239 22 265 3.2 3.2 0.00 0.00 0.00 43 992.5
20260504183735 22 123 4.8 4.8 0.00 0.00 0.00 43 992.5
20260504183232 22 261 6.4 8.0 0.00 0.00 0.00 41 992.8
20260504182730 22 217 8.0 9.7 0.00 0.00 0.00 41 992.8
20260504182227 21 264 11.3 14.5 0.00 0.00 0.00 42 992.8
20260504181724 21 242 6.4 8.0 0.00 0.00 0.00 46 993.1
20260504181222 21 238 8.0 12.9 0.00 0.00 0.00 42 993.0
20260504180721 21 245 6.4 9.7 0.00 0.00 0.00 41 993.2
20260504180219 21 257 8.0 11.3 0.00 0.00 0.00 42 993.1
20260504175716 22 228 8.0 11.3 0.00 0.00 0.00 42 993.1
20260504175213 21 244 6.4 8.0 0.00 0.00 0.00 43 993.3
20260504174711 21 239 3.2 4.8 0.00 0.00 0.00 44 993.2
20260504174208 21 275 6.4 9.7 0.00 0.00 0.00 44 993.4
20260504173704 21 201 1.6 4.8 0.00 0.00 0.00 43 993.5
20260504173202 21 251 8.0 9.7 0.00 0.00 0.00 42 993.6
20260504172658 22 193 4.8 8.0 0.00 0.00 0.00 40 993.6
20260504172155 21 216 4.8 8.0 0.00 0.00 0.00 42 993.7
20260504171651 20 273 4.8 8.0 0.00 0.00 0.00 44 993.9
20260504171148 21 191 8.0 11.3 0.00 0.00 0.00 42 993.8
20260504170645 20 242 4.8 4.8 0.00 0.00 0.00 43 994.0
20260504170142 21 266 8.0 9.7 0.00 0.00 0.00 43 994.0
20260504151033 19 191 3.2 3.2 0.00 0.00 0.00 44 995.4
20260504150531 19 233 4.8 4.8 0.00 0.00 0.00 49 995.4
20260504140956 17 265 6.4 9.7 0.00 0.00 0.00 54 995.7
20260504140453 17 194 4.8 8.0 0.00 0.00 0.00 53 995.7
20260504130418 14 246 3.2 4.8 0.00 0.00 0.00 66 996.3
20260504110305 7 230 0.0 0.0 0.00 0.00 0.00 68 996.5
20260504100223 6 230 3.2 3.2 0.00 0.00 0.00 67 996.7
20260504081616 8 234 4.8 4.8 0.00 0.00 0.00 62 996.2
20260504081112 8 244 4.8 4.8 0.00 0.00 0.00 62 996.3
20260504080609 8 242 4.8 4.8 0.00 0.00 0.00 62 996.4
20260504080105 8 245 3.2 3.2 0.00 0.00 0.00 61 996.4
20260504050421 8 236 3.2 3.2 0.00 0.00 0.00 61 996.3
20260504045918 8 234 4.8 4.8 0.00 0.00 0.00 61 996.4
20260504045414 8 232 4.8 4.8 0.00 0.00 0.00 61 996.3
20260504044910 8 229 4.8 4.8 0.00 0.00 0.00 60 996.3
20260504044408 9 234 4.8 4.8 0.00 0.00 0.00 60 996.4
20260504043905 9 235 3.2 3.2 0.00 0.00 0.00 58 996.2
20260504043402 9 235 4.8 4.8 0.00 0.00 0.00 57 996.3
20260504042900 9 236 3.2 3.2 0.00 0.00 0.00 58 996.2
20260504042355 9 236 3.2 3.2 0.00 0.00 0.00 58 996.2
20260504041852 10 235 3.2 4.8 0.00 0.00 0.00 58 996.2
20260504041348 9 235 4.8 4.8 0.00 0.00 0.00 57 996.1
20260504040845 9 237 3.2 3.2 0.00 0.00 0.00 59 996.1
20260504040342 9 237 3.2 3.2 0.00 0.00 0.00 58 996.0
20260504035838 9 238 4.8 4.8 0.00 0.00 0.00 58 996.0
20260504035336 9 238 3.2 3.2 0.00 0.00 0.00 58 995.9
20260504034832 9 240 3.2 3.2 0.00 0.00 0.00 59 996.1
20260504034330 9 239 4.8 4.8 0.00 0.00 0.00 58 995.9
20260504033827 9 241 4.8 4.8 0.00 0.00 0.00 58 995.9
20260504033325 10 241 4.8 4.8 0.00 0.00 0.00 58 995.8
20260504032821 10 241 4.8 4.8 0.00 0.00 0.00 58 995.7
20260504032319 10 241 3.2 3.2 0.00 0.00 0.00 58 995.8
20260504031815 10 245 3.2 4.8 0.00 0.00 0.00 57 995.7
20260504031313 10 240 4.8 4.8 0.00 0.00 0.00 58 995.7
20260504030809 10 238 4.8 4.8 0.00 0.00 0.00 57 995.8
20260504030306 10 240 4.8 4.8 0.00 0.00 0.00 58 995.7
20260504025802 10 240 3.2 3.2 0.00 0.00 0.00 58 995.6
20260504025259 10 239 3.2 3.2 0.00 0.00 0.00 58 995.7
20260504024755 10 238 4.8 8.0 0.00 0.00 0.00 56 995.6
20260504024252 10 239 4.8 4.8 0.00 0.00 0.00 56 995.7
20260504023749 10 238 4.8 4.8 0.00 0.00 0.00 56 995.7
20260504023246 10 237 4.8 4.8 0.00 0.00 0.00 57 995.8
20260504022741 10 237 3.2 3.2 0.00 0.00 0.00 57 995.8
20260504022238 10 236 3.2 3.2 0.00 0.00 0.00 54 995.7
20260504021735 10 235 4.8 4.8 0.00 0.00 0.00 54 995.8
20260504021232 11 234 4.8 4.8 0.00 0.00 0.00 52 995.7
20260504020729 11 238 4.8 4.8 0.00 0.00 0.00 53 995.9
20260504020226 11 239 4.8 4.8 0.00 0.00 0.00 52 995.8
20260504015722 11 238 4.8 4.8 0.00 0.00 0.00 52 995.6
20260504015218 11 239 4.8 4.8 0.00 0.00 0.00 52 995.8
20260504014714 11 241 4.8 4.8 0.00 0.00 0.00 52 995.5
20260504014211 11 242 4.8 4.8 0.00 0.00 0.00 52 995.4
20260504013709 11 240 4.8 8.0 0.00 0.00 0.00 51 995.7
20260504013206 11 237 1.6 3.2 0.00 0.00 0.00 52 995.4
20260504012703 11 242 4.8 4.8 0.00 0.00 0.00 52 995.6
20260504012201 11 242 1.6 3.2 0.00 0.00 0.00 52 995.5
20260504011657 11 241 1.6 3.2 0.00 0.00 0.00 53 995.3
20260504011154 11 239 3.2 3.2 0.00 0.00 0.00 52 995.2
20260504010650 12 240 3.2 3.2 0.00 0.00 0.00 51 995.4
20260504010145 12 237 3.2 3.2 0.00 0.00 0.00 49 995.2
20260504005643 11 246 3.2 4.8 0.00 0.00 0.00 51 995.5
20260504005139 12 241 3.2 4.8 0.00 0.00 0.00 51 995.2
20260504004638 12 239 3.2 3.2 0.00 0.00 0.00 51 995.1
20260504004134 12 241 3.2 3.2 0.00 0.00 0.00 50 995.2
20260504003631 12 238 4.8 4.8 0.00 0.00 0.00 49 994.9
20260504003127 12 245 3.2 4.8 0.00 0.00 0.00 48 994.9
20260504002624 12 240 3.2 3.2 0.00 0.00 0.00 49 994.7
20260504002122 12 240 3.2 4.8 0.00 0.00 0.00 47 994.7
20260504001619 12 242 3.2 3.2 0.00 0.00 0.00 47 994.5
20260504001115 12 239 3.2 3.2 0.00 0.00 0.00 47 994.5
20260504000613 12 241 3.2 3.2 0.00 0.00 0.00 48 994.7
20260504000110 12 242 1.6 1.6 0.00 0.00 0.00 48 994.3
20260503235608 13 244 1.6 1.6 0.00 0.00 0.00 48 994.5
20260503235105 13 245 1.6 4.8 0.00 0.00 0.00 47 994.4
20260503234603 13 249 1.6 1.6 0.00 0.00 0.00 47 994.2
20260503234100 13 255 1.6 3.2 0.00 0.00 0.00 47 994.2
20260503233556 13 249 1.6 1.6 0.00 0.00 0.00 45 994.3
20260503233052 13 237 3.2 3.2 0.00 0.00 0.00 46 994.2
20260503232550 14 267 1.6 1.6 0.00 0.00 0.00 45 994.4
20260503232047 14 255 4.8 4.8 0.00 0.00 0.00 42 994.2
20260503231545 14 310 1.6 1.6 0.00 0.00 0.00 44 994.1
20260503231041 14 282 3.2 3.2 0.00 0.00 0.00 43 994.3
20260503230538 14 262 1.6 3.2 0.00 0.00 0.00 42 994.1
20260503230036 14 287 4.8 8.0 0.00 0.00 0.00 44 994.0
20260503225532 15 285 1.6 1.6 0.00 0.00 0.00 45 993.8
20260503225027 15 278 1.6 3.2 0.00 0.00 0.00 43 994.1
20260503224525 15 310 1.6 3.2 0.00 0.00 0.00 42 994.0
20260503224023 15 275 4.8 8.0 0.00 0.00 0.00 41 994.0
20260503223520 15 246 3.2 4.8 0.00 0.00 0.00 43 994.2
20260503223016 15 303 6.4 9.7 0.00 0.00 0.00 41 994.0
20260503222514 15 268 3.2 3.2 0.00 0.00 0.00 44 994.2
20260503222012 15 318 1.6 3.2 0.00 0.00 0.00 42 994.2
20260503221510 15 286 0.0 1.6 0.00 0.00 0.00 43 994.0
20260503221007 15 340 6.4 8.0 0.00 0.00 0.00 40 994.2
20260503220503 15 256 3.2 3.2 0.00 0.00 0.00 40 993.9
20260503220000 15 318 3.2 3.2 0.00 0.00 0.00 40 994.2
20260503215457 16 260 4.8 8.0 0.00 0.00 0.00 41 994.2
20260503214954 16 357 3.2 3.2 0.00 0.00 0.00 38 994.0
20260503214452 15 267 1.6 3.2 0.00 0.00 0.00 38 994.1
20260503213949 16 251 4.8 8.0 0.00 0.00 0.00 40 994.1
20260503213447 16 245 4.8 8.0 0.00 0.00 0.00 38 994.0
20260503212943 15 338 1.6 3.2 0.00 0.00 0.00 38 993.9
20260503212441 15 293 4.8 4.8 0.00 0.00 0.00 37 993.9
20260503211938 15 291 4.8 4.8 0.00 0.00 0.00 38 993.8
20260503211435 16 261 8.0 9.7 0.00 0.00 0.00 40 993.9
20260503210930 16 292 4.8 4.8 0.00 0.00 0.00 37 994.0
20260503210427 16 318 4.8 4.8 0.00 0.00 0.00 37 994.1
20260503205922 16 310 1.6 3.2 0.00 0.00 0.00 37 994.1
20260503205420 16 311 6.4 8.0 0.00 0.00 0.00 36 993.9